Radiation Dose at Monitoring Post of Fukushima Daini Nuclear Power Station
Date,Time,MP-1(microSv/h),MP-2(microSv/h),MP-3(microSv/h),MP-4(microSv/h),MP-5(microSv/h),MP-6(microSv/h),MP-7(microSv/h),Wind Direction,Wind Velocity(m/s),Rain
2021/01/16,00:00,0.177,0.158,0.254,0.242,0.239,0.140,0.086,-,CALM,No
2021/01/16,00:10,0.175,0.158,0.254,0.241,0.237,0.140,0.086,southwest,1.7,No
2021/01/16,00:20,0.176,0.158,0.253,0.242,0.238,0.140,0.085,south-southwest,2.5,No
2021/01/16,00:30,0.175,0.158,0.255,0.242,0.238,0.140,0.085,south-southwest,2.8,No
2021/01/16,00:40,0.176,0.158,0.255,0.241,0.238,0.141,0.085,southwest,1.6,No
2021/01/16,00:50,0.176,0.158,0.255,0.242,0.238,0.140,0.085,southwest,2.0,No
2021/01/16,01:00,0.176,0.158,0.256,0.243,0.238,0.141,0.085,southwest,1.4,No
2021/01/16,01:10,0.175,0.158,0.255,0.242,0.238,0.140,0.085,-,CALM,No
2021/01/16,01:20,0.176,0.158,0.255,0.241,0.239,0.142,0.085,-,CALM,No
2021/01/16,01:30,0.176,0.158,0.256,0.241,0.239,0.141,0.086,southwest,1.1,No
2021/01/16,01:40,0.177,0.159,0.254,0.243,0.238,0.140,0.085,south-southwest,1.5,No
2021/01/16,01:50,0.177,0.158,0.255,0.242,0.239,0.140,0.086,south,2.3,No
2021/01/16,02:00,0.176,0.158,0.255,0.243,0.237,0.140,0.087,south-southwest,1.8,No
2021/01/16,02:10,0.176,0.158,0.255,0.242,0.237,0.141,0.085,southwest,1.9,No
2021/01/16,02:20,0.177,0.158,0.255,0.241,0.239,0.140,0.086,southwest,3.1,No
2021/01/16,02:30,0.176,0.158,0.254,0.242,0.239,0.141,0.085,west-southwest,2.7,No
2021/01/16,02:40,0.177,0.158,0.256,0.243,0.239,0.142,0.085,west,2.5,No
2021/01/16,02:50,0.176,0.158,0.255,0.242,0.236,0.141,0.085,west,2.6,No
2021/01/16,03:00,0.176,0.158,0.255,0.242,0.238,0.140,0.085,west-southwest,3.2,No
2021/01/16,03:10,0.176,0.159,0.254,0.242,0.237,0.141,0.085,southwest,4.9,No
2021/01/16,03:20,0.177,0.158,0.254,0.242,0.238,0.140,0.085,south-southwest,1.3,No
2021/01/16,03:30,0.175,0.158,0.254,0.241,0.237,0.141,0.086,south-southwest,2.5,No
2021/01/16,03:40,0.176,0.157,0.254,0.241,0.237,0.141,0.085,south-southwest,3.4,No
2021/01/16,03:50,0.176,0.157,0.254,0.243,0.237,0.140,0.085,south-southwest,2.1,No
2021/01/16,04:00,0.176,0.158,0.254,0.242,0.239,0.141,0.085,south-southwest,4.2,No
2021/01/16,04:10,0.178,0.158,0.254,0.240,0.238,0.140,0.086,southwest,6.0,No
2021/01/16,04:20,0.176,0.158,0.254,0.241,0.238,0.141,0.085,south-southwest,5.5,No
2021/01/16,04:30,0.176,0.158,0.254,0.242,0.238,0.141,0.086,south-southwest,3.6,No
2021/01/16,04:40,0.177,0.158,0.254,0.242,0.238,0.140,0.085,south-southwest,3.7,No
2021/01/16,04:50,0.176,0.159,0.255,0.241,0.238,0.140,0.085,south-southwest,4.0,No
2021/01/16,05:00,0.176,0.158,0.253,0.242,0.238,0.140,0.085,southwest,5.8,No
2021/01/16,05:10,0.175,0.157,0.254,0.241,0.238,0.140,0.085,southwest,7.3,No
2021/01/16,05:20,0.175,0.158,0.254,0.242,0.237,0.139,0.085,southwest,7.9,No
2021/01/16,05:30,0.176,0.158,0.253,0.242,0.237,0.141,0.084,southwest,8.4,No
2021/01/16,05:40,0.176,0.159,0.254,0.242,0.237,0.140,0.086,south-southwest,5.9,No
2021/01/16,05:50,0.175,0.158,0.253,0.241,0.238,0.140,0.085,south-southwest,4.5,No
2021/01/16,06:00,0.177,0.157,0.255,0.242,0.236,0.140,0.085,south,5.2,No
2021/01/16,06:10,0.177,0.158,0.254,0.241,0.236,0.141,0.085,south,4.4,No
2021/01/16,06:20,0.177,0.158,0.254,0.241,0.238,0.140,0.084,south,4.3,No
2021/01/16,06:30,0.176,0.157,0.253,0.241,0.238,0.139,0.086,south,4.9,No
2021/01/16,06:40,0.175,0.157,0.255,0.241,0.236,0.139,0.085,south,4.4,No
2021/01/16,06:50,0.176,0.158,0.254,0.241,0.238,0.140,0.085,south,5.3,No
2021/01/16,07:00,0.176,0.158,0.253,0.242,0.237,0.139,0.085,south,5.5,No
2021/01/16,07:10,0.176,0.157,0.253,0.241,0.238,0.139,0.085,south,5.3,No
2021/01/16,07:20,0.176,0.157,0.254,0.241,0.238,0.140,0.084,south,5.0,No
2021/01/16,07:30,0.176,0.158,0.255,0.241,0.238,0.140,0.085,south,4.4,No
2021/01/16,07:40,0.176,0.158,0.254,0.241,0.238,0.140,0.085,south,4.7,No
2021/01/16,07:50,0.176,0.157,0.254,0.240,0.237,0.139,0.085,south-southeast,5.6,No
2021/01/16,08:00,0.175,0.157,0.253,0.242,0.238,0.140,0.085,south,5.5,No
2021/01/16,08:10,0.176,0.158,0.254,0.241,0.238,0.140,0.085,south,5.1,No
2021/01/16,08:20,0.175,0.158,0.253,0.241,0.237,0.140,0.084,south-southeast,7.0,No
2021/01/16,08:30,0.176,0.158,0.253,0.240,0.237,0.140,0.085,south,6.5,No
2021/01/16,08:40,0.176,0.158,0.253,0.241,0.239,0.140,0.086,south,5.9,No
2021/01/16,08:50,0.176,0.158,0.255,0.241,0.238,0.141,0.085,south-southeast,6.2,No
2021/01/16,09:00,0.176,0.157,0.253,0.241,0.238,0.140,0.085,south,4.4,No
2021/01/16,09:10,0.176,0.158,0.254,0.242,0.239,0.140,0.086,south,4.3,No
2021/01/16,09:20,0.176,0.159,0.255,0.241,0.239,0.140,0.085,south-southeast,5.7,No
2021/01/16,09:30,0.177,0.159,0.255,0.241,0.239,0.140,0.085,south-southeast,5.3,No
2021/01/16,09:40,0.176,0.158,0.253,0.241,0.239,0.140,0.085,south-southeast,4.9,No
2021/01/16,09:50,0.176,0.157,0.254,0.240,0.237,0.140,0.085,south,4.3,No
2021/01/16,10:00,0.176,0.157,0.255,0.242,0.238,0.140,0.085,south,3.8,No
2021/01/16,10:10,0.175,0.157,0.253,0.241,0.238,0.140,0.085,south,3.7,No
2021/01/16,10:20,0.176,0.158,0.254,0.241,0.238,0.141,0.085,south,3.8,No
2021/01/16,10:30,0.175,0.158,0.255,0.241,0.238,0.140,0.086,south,3.1,No
2021/01/16,10:40,0.176,0.158,0.253,0.242,0.237,0.141,0.086,south-southwest,2.2,No
2021/01/16,10:50,0.175,0.157,0.252,0.242,0.239,0.140,0.085,west-northwest,4.3,No
2021/01/16,11:00,0.175,0.158,0.252,0.242,0.237,0.140,0.085,west-northwest,7.7,No
2021/01/16,11:10,0.175,0.157,0.253,0.241,0.237,0.140,0.085,west-northwest,6.7,No
2021/01/16,11:20,0.176,0.157,0.253,0.241,0.237,0.140,0.086,west-northwest,3.1,No
2021/01/16,11:30,0.175,0.159,0.255,0.241,0.238,0.140,0.084,west-northwest,5.2,No
2021/01/16,11:40,0.176,0.158,0.253,0.240,0.237,0.141,0.085,northwest,9.0,No
2021/01/16,11:50,0.177,0.158,0.253,0.243,0.239,0.140,0.085,northwest,6.6,No
2021/01/16,12:00,0.176,0.158,0.254,0.241,0.237,0.140,0.084,northwest,5.9,No
2021/01/16,12:10,0.177,0.158,0.255,0.243,0.239,0.140,0.085,northwest,2.5,No
2021/01/16,12:20,0.176,0.157,0.256,0.242,0.237,0.140,0.084,northwest,2.8,No
2021/01/16,12:30,0.176,0.159,0.255,0.242,0.239,0.140,0.085,north,1.9,No
2021/01/16,12:40,0.176,0.158,0.255,0.242,0.238,0.140,0.085,north,1.0,No
2021/01/16,12:50,0.175,0.158,0.254,0.241,0.239,0.140,0.085,west,0.7,No
2021/01/16,13:00,0.176,0.158,0.253,0.242,0.238,0.140,0.085,west,3.0,No
2021/01/16,13:10,0.175,0.158,0.254,0.241,0.238,0.139,0.085,west,6.5,No
2021/01/16,13:20,0.176,0.159,0.254,0.240,0.239,0.140,0.084,west,4.8,No
2021/01/16,13:30,0.176,0.158,0.254,0.242,0.238,0.140,0.084,west,3.4,Yes
2021/01/16,13:40,0.176,0.158,0.255,0.241,0.241,0.140,0.085,west,5.0,Yes
2021/01/16,13:50,0.176,0.157,0.254,0.243,0.237,0.141,0.086,west-northwest,3.6,No
2021/01/16,14:00,0.176,0.158,0.255,0.242,0.240,0.141,0.086,west-northwest,4.5,No
2021/01/16,14:10,0.176,0.157,0.255,0.242,0.237,0.140,0.085,west-northwest,6.3,No
2021/01/16,14:20,0.177,0.158,0.254,0.243,0.238,0.141,0.086,west,7.6,No
2021/01/16,14:30,0.176,0.158,0.256,0.241,0.239,0.141,0.085,west-northwest,5.2,No
2021/01/16,14:40,0.176,0.159,0.255,0.243,0.238,0.141,0.085,west-southwest,1.2,No
2021/01/16,14:50,0.175,0.159,0.253,0.243,0.239,0.142,0.085,-,CALM,No
2021/01/16,15:00,0.177,0.158,0.256,0.240,0.238,0.140,0.085,northeast,1.3,No
2021/01/16,15:10,0.176,0.158,0.254,0.243,0.239,0.142,0.085,northeast,6.1,No
2021/01/16,15:20,0.175,0.158,0.255,0.241,0.240,0.141,0.086,northeast,6.7,No
2021/01/16,15:30,0.178,0.158,0.256,0.243,0.239,0.142,0.085,north-northeast,3.4,No
2021/01/16,15:40,0.177,0.158,0.254,0.243,0.238,0.141,0.085,northwest,1.8,No
2021/01/16,15:50,0.175,0.159,0.255,0.242,0.239,0.141,0.085,west-northwest,3.4,No
2021/01/16,16:00,0.178,0.159,0.255,0.241,0.239,0.141,0.085,west-northwest,3.9,Yes
2021/01/16,16:10,0.176,0.158,0.254,0.243,0.241,0.141,0.086,west-northwest,5.9,Yes
2021/01/16,16:20,0.177,0.159,0.256,0.243,0.239,0.141,0.086,northwest,4.3,Yes
2021/01/16,16:30,0.177,0.159,0.258,0.244,0.242,0.142,0.086,northwest,3.5,Yes
2021/01/16,16:40,0.178,0.160,0.257,0.245,0.242,0.143,0.088,northwest,5.0,Yes
2021/01/16,16:50,0.179,0.161,0.257,0.245,0.242,0.145,0.088,northwest,6.0,Yes
2021/01/16,17:00,0.181,0.163,0.261,0.246,0.242,0.145,0.089,northwest,5.3,Yes
2021/01/16,17:10,0.182,0.165,0.261,0.250,0.246,0.147,0.092,west-northwest,7.5,Yes
2021/01/16,17:20,0.186,0.169,0.266,0.252,0.250,0.151,0.096,northwest,7.9,Yes
2021/01/16,17:30,0.187,0.171,0.267,0.254,0.250,0.153,0.098,northwest,5.3,Yes
2021/01/16,17:40,0.186,0.170,0.267,0.254,0.251,0.154,0.099,north-northwest,5.0,No
2021/01/16,17:50,0.186,0.168,0.265,0.253,0.248,0.153,0.098,north-northwest,6.1,No
2021/01/16,18:00,0.185,0.168,0.263,0.251,0.248,0.150,0.096,northwest,7.0,No
2021/01/16,18:10,0.184,0.166,0.262,0.250,0.246,0.149,0.094,northwest,7.9,No
2021/01/16,18:20,0.183,0.164,0.261,0.248,0.246,0.148,0.092,north-northwest,7.9,No
2021/01/16,18:30,0.181,0.164,0.262,0.247,0.244,0.148,0.092,north-northwest,8.5,No
2021/01/16,18:40,0.182,0.163,0.260,0.246,0.243,0.147,0.090,north-northwest,7.7,No
2021/01/16,18:50,0.180,0.162,0.259,0.246,0.243,0.144,0.090,north-northwest,9.2,No
2021/01/16,19:00,0.179,0.161,0.259,0.246,0.242,0.145,0.089,north-northwest,9.3,No
2021/01/16,19:10,0.179,0.161,0.258,0.246,0.241,0.144,0.088,north-northwest,8.4,No
2021/01/16,19:20,0.179,0.161,0.258,0.245,0.240,0.143,0.088,north-northwest,6.2,No
2021/01/16,19:30,0.180,0.160,0.258,0.244,0.241,0.143,0.088,north-northwest,7.3,No
2021/01/16,19:40,0.178,0.159,0.257,0.244,0.240,0.143,0.087,north,7.9,No
2021/01/16,19:50,0.179,0.161,0.255,0.243,0.240,0.142,0.087,north-northwest,5.5,No
2021/01/16,20:00,0.178,0.159,0.256,0.242,0.240,0.143,0.086,north,5.2,No
2021/01/16,20:10,0.179,0.160,0.257,0.244,0.240,0.142,0.087,north,4.7,No
2021/01/16,20:20,0.178,0.160,0.257,0.243,0.239,0.141,0.086,north,5.3,No
2021/01/16,20:30,0.177,0.161,0.256,0.242,0.240,0.140,0.086,north-northeast,5.6,No
2021/01/16,20:40,0.177,0.159,0.256,0.244,0.240,0.142,0.086,north-northeast,5.8,No
2021/01/16,20:50,0.179,0.160,0.257,0.244,0.239,0.141,0.086,north-northeast,4.7,No
2021/01/16,21:00,0.177,0.159,0.257,0.243,0.238,0.141,0.086,north-northeast,5.4,No
2021/01/16,21:10,0.177,0.159,0.256,0.244,0.240,0.141,0.085,north-northwest,3.7,No
2021/01/16,21:20,0.177,0.159,0.255,0.243,0.239,0.141,0.086,north-northwest,3.4,No
2021/01/16,21:30,0.178,0.159,0.255,0.242,0.240,0.140,0.086,north-northwest,4.0,No
2021/01/16,21:40,0.178,0.159,0.255,0.242,0.238,0.140,0.085,north-northwest,4.4,No
2021/01/16,21:50,0.176,0.159,0.254,0.242,0.239,0.141,0.086,northwest,5.0,No
2021/01/16,22:00,0.177,0.159,0.255,0.242,0.238,0.141,0.085,northwest,4.3,No
2021/01/16,22:10,0.177,0.159,0.254,0.243,0.238,0.141,0.085,northwest,8.2,No
2021/01/16,22:20,0.178,0.158,0.256,0.243,0.238,0.141,0.086,west-northwest,9.6,No
2021/01/16,22:30,0.178,0.159,0.255,0.240,0.238,0.140,0.085,west-northwest,12.8,No
2021/01/16,22:40,0.177,0.158,0.255,0.240,0.239,0.141,0.085,west-northwest,11.5,No
2021/01/16,22:50,0.176,0.159,0.254,0.242,0.239,0.141,0.085,west-northwest,14.0,No
2021/01/16,23:00,0.178,0.158,0.254,0.241,0.239,0.141,0.085,west-northwest,16.5,No
2021/01/16,23:10,0.177,0.158,0.254,0.242,0.239,0.141,0.085,west-northwest,16.1,No
2021/01/16,23:20,0.176,0.159,0.256,0.242,0.239,0.141,0.086,west-northwest,19.7,No
2021/01/16,23:30,0.177,0.158,0.253,0.242,0.238,0.140,0.085,west,17.9,No
2021/01/16,23:40,0.177,0.159,0.256,0.242,0.239,0.141,0.085,west,18.1,No
2021/01/16,23:50,0.177,0.158,0.256,0.243,0.239,0.141,0.086,west-northwest,20.8,No
